Location: Newark
(32.9533°N, 113.4900°W)
Time: 23:12:22
(UTC+00:00)

N. Korean satellite - Pass Details

Date: 25 March 2019
Orbit: 457 x 508 km, 97.2° (Epoch: 18 April)

Event Time Altitude Azimuth Distance (km) Brightness Sun altitude
Rises 12:52:55 0° 30° (NNE) 2,540 10.8 -8.9°
Reaches altitude 10° 12:55:25 10° 48° (NE) 1,667 10.2 -8.3°
Maximum altitude 12:58:03 19° 96° (E) 1,208 9.8 -7.8°
Drops below altitude 10° 13:00:42 10° 143° (SE) 1,679 9.7 -7.2°
Sets 13:03:13 0° 161° (SSE) 2,566 10.4 -6.7°
